Check out our new BloomSky Weather System.

Active alerts

Houston, TX
  Details for Houston, TX Dense Fog Advisory


Thunder radar  blitzortung!


Rain radar more information rain snow radar


Visit our other weather sites:

Template documentation
and downloads

And another site



Weather Underground History page Text

Daily Summary for May 18, 2017 Units:  English    Metric   Both
« Previous Day
Next Day »
Daily Weekly Monthly Yearly Custom
  High: Low: Average:
Temperature: 91.2 °F 77.4 °F 82.4 °F
Dew Point: 75.4 °F 69.6 °F 73.6 °F
Humidity: 92 % 54 % 76 %
Wind Speed: 19.0 mph 1.0 mph 7 mph
Wind Gust: 22.0 mph - -
Wind:- - SE
Pressure: 29.85 in 29.75 in -
Precipitation: 0.00 in    
Historical Graphs
 
 
Tabular Data for May 18, 2017
Time Temperature Dew Point Pressure Wind Wind Speed Wind Gust Humidity Rainfall Rate (Hourly)
00:01 79.5 °F 75.0 °F 29.81 in SE 3.0 mph 9.0 mph 86 % 0.00 in
00:06 79.5 °F 75.4 °F 29.81 in SSE 11.0 mph 11.0 mph 87 % 0.00 in
00:11 79.5 °F 75.0 °F 29.81 in SE 4.0 mph 11.0 mph 86 % 0.00 in
00:16 79.5 °F 75.4 °F 29.80 in ESE 3.0 mph 11.0 mph 87 % 0.00 in
00:21 79.3 °F 75.2 °F 29.80 in SSE 4.0 mph 11.0 mph 87 % 0.00 in
00:23 79.3 °F 75.2 °F 29.80 in SE 4.0 mph 11.0 mph 87 % 0.00 in
00:28 79.3 °F 75.2 °F 29.81 in SE 2.0 mph 8.0 mph 87 % 0.00 in
00:33 79.2 °F 75.0 °F 29.81 in SE 4.0 mph 8.0 mph 87 % 0.00 in
00:38 79.2 °F 75.0 °F 29.81 in South 3.0 mph 8.0 mph 87 % 0.00 in
00:43 79.2 °F 75.0 °F 29.80 in SSE 3.0 mph 8.0 mph 87 % 0.00 in
00:48 79.0 °F 75.2 °F 29.81 in East 6.0 mph 9.0 mph 88 % 0.00 in
00:53 78.8 °F 75.0 °F 29.80 in ESE 5.0 mph 9.0 mph 88 % 0.00 in
00:58 78.8 °F 75.0 °F 29.80 in SSE 5.0 mph 9.0 mph 88 % 0.00 in
01:03 78.6 °F 74.8 °F 29.80 in SE 3.0 mph 10.0 mph 88 % 0.00 in
01:08 78.6 °F 75.0 °F 29.80 in ESE 7.0 mph 10.0 mph 89 % 0.00 in
01:13 78.6 °F 75.0 °F 29.80 in SSE 4.0 mph 10.0 mph 89 % 0.00 in
01:18 78.6 °F 75.0 °F 29.80 in SE 8.0 mph 8.0 mph 89 % 0.00 in
01:23 78.6 °F 75.0 °F 29.80 in ESE 6.0 mph 10.0 mph 89 % 0.00 in
01:28 78.6 °F 75.0 °F 29.80 in SE 3.0 mph 10.0 mph 89 % 0.00 in
01:33 78.6 °F 75.0 °F 29.80 in ESE 4.0 mph 10.0 mph 89 % 0.00 in
01:38 78.6 °F 75.0 °F 29.80 in ESE 6.0 mph 10.0 mph 89 % 0.00 in
01:43 78.6 °F 75.0 °F 29.80 in SE 6.0 mph 10.0 mph 89 % 0.00 in
01:48 78.8 °F 75.2 °F 29.80 in SSE 6.0 mph 10.0 mph 89 % 0.00 in
01:53 79.0 °F 75.4 °F 29.80 in SSE 6.0 mph 10.0 mph 89 % 0.00 in
01:58 79.0 °F 75.4 °F 29.80 in South 3.0 mph 11.0 mph 89 % 0.00 in
01:59 79.0 °F 75.4 °F 29.80 in SSE 4.0 mph 11.0 mph 89 % 0.00 in
02:04 79.0 °F 75.2 °F 29.79 in SE 3.0 mph 11.0 mph 88 % 0.00 in
02:09 79.0 °F 75.2 °F 29.80 in ESE 7.0 mph 11.0 mph 88 % 0.00 in
02:14 79.0 °F 75.2 °F 29.80 in SE 4.0 mph 10.0 mph 88 % 0.00 in
02:19 79.0 °F 75.2 °F 29.80 in SSE 2.0 mph 9.0 mph 88 % 0.00 in
02:24 79.0 °F 75.2 °F 29.80 in SE 3.0 mph 10.0 mph 88 % 0.00 in
02:29 79.0 °F 75.2 °F 29.80 in East 4.0 mph 10.0 mph 88 % 0.00 in
02:34 79.0 °F 75.2 °F 29.80 in SE 4.0 mph 10.0 mph 88 % 0.00 in
02:39 78.8 °F 75.2 °F 29.80 in South 5.0 mph 9.0 mph 89 % 0.00 in
02:44 78.6 °F 75.0 °F 29.79 in SSE 4.0 mph 10.0 mph 89 % 0.00 in
02:49 78.6 °F 75.0 °F 29.80 in ESE 4.0 mph 10.0 mph 89 % 0.00 in
02:54 78.6 °F 75.0 °F 29.79 in SSE 2.0 mph 10.0 mph 89 % 0.00 in
02:59 78.6 °F 75.0 °F 29.79 in ESE 2.0 mph 9.0 mph 89 % 0.00 in
03:04 78.4 °F 75.2 °F 29.79 in SE 4.0 mph 9.0 mph 90 % 0.00 in
03:09 78.4 °F 75.2 °F 29.79 in SE 4.0 mph 7.0 mph 90 % 0.00 in
03:14 78.4 °F 75.2 °F 29.79 in SE 5.0 mph 8.0 mph 90 % 0.00 in
03:19 78.4 °F 75.2 °F 29.78 in SSE 4.0 mph 8.0 mph 90 % 0.00 in
03:24 78.4 °F 75.2 °F 29.78 in SE 4.0 mph 10.0 mph 90 % 0.00 in
03:29 78.4 °F 75.2 °F 29.78 in SE 7.0 mph 10.0 mph 90 % 0.00 in
03:34 78.3 °F 75.4 °F 29.78 in SSE 5.0 mph 10.0 mph 91 % 0.00 in
03:39 78.1 °F 75.2 °F 29.78 in SE 4.0 mph 9.0 mph 91 % 0.00 in
03:44 77.9 °F 75.0 °F 29.78 in South 4.0 mph 9.0 mph 91 % 0.00 in
03:49 77.9 °F 75.4 °F 29.78 in South 1.0 mph 7.0 mph 92 % 0.00 in
03:54 77.7 °F 75.2 °F 29.78 in SSE 3.0 mph 7.0 mph 92 % 0.00 in
03:59 77.7 °F 75.2 °F 29.78 in SE 4.0 mph 7.0 mph 92 % 0.00 in
04:04 77.7 °F 75.2 °F 29.78 in South 1.0 mph 7.0 mph 92 % 0.00 in
04:09 77.7 °F 75.2 °F 29.78 in South 3.0 mph 7.0 mph 92 % 0.00 in
04:14 77.7 °F 75.2 °F 29.79 in ESE 4.0 mph 7.0 mph 92 % 0.00 in
04:19 77.7 °F 75.2 °F 29.78 in SE 3.0 mph 7.0 mph 92 % 0.00 in
04:24 77.7 °F 75.2 °F 29.78 in SSE 3.0 mph 7.0 mph 92 % 0.00 in
04:29 77.7 °F 75.2 °F 29.78 in South 5.0 mph 7.0 mph 92 % 0.00 in
04:34 77.7 °F 75.2 °F 29.78 in SSE 3.0 mph 10.0 mph 92 % 0.00 in
04:39 77.7 °F 75.2 °F 29.78 in SSE 4.0 mph 10.0 mph 92 % 0.00 in
04:44 77.7 °F 75.2 °F 29.78 in ESE 4.0 mph 9.0 mph 92 % 0.00 in
04:49 77.7 °F 74.8 °F 29.78 in SSE 5.0 mph 11.0 mph 91 % 0.00 in
04:54 77.7 °F 74.8 °F 29.78 in SSE 4.0 mph 11.0 mph 91 % 0.00 in
04:59 77.7 °F 74.8 °F 29.78 in South 3.0 mph 11.0 mph 91 % 0.00 in
05:04 77.7 °F 74.8 °F 29.78 in SE 7.0 mph 10.0 mph 91 % 0.00 in
05:09 77.7 °F 74.8 °F 29.78 in South 6.0 mph 11.0 mph 91 % 0.00 in
05:14 77.7 °F 74.8 °F 29.78 in East 9.0 mph 11.0 mph 91 % 0.00 in
05:19 77.7 °F 74.8 °F 29.78 in ESE 4.0 mph 11.0 mph 91 % 0.00 in
05:24 77.5 °F 74.7 °F 29.78 in SE 4.0 mph 11.0 mph 91 % 0.00 in
05:29 77.5 °F 74.7 °F 29.78 in SE 5.0 mph 10.0 mph 91 % 0.00 in
05:34 77.5 °F 74.7 °F 29.78 in SE 4.0 mph 10.0 mph 91 % 0.00 in
05:39 77.5 °F 74.7 °F 29.78 in SSE 4.0 mph 10.0 mph 91 % 0.00 in
05:44 77.5 °F 74.7 °F 29.78 in SE 3.0 mph 10.0 mph 91 % 0.00 in
05:50 77.5 °F 74.7 °F 29.78 in ESE 5.0 mph 9.0 mph 91 % 0.00 in
05:54 77.5 °F 74.7 °F 29.78 in ESE 6.0 mph 9.0 mph 91 % 0.00 in
05:59 77.4 °F 74.5 °F 29.79 in SSE 4.0 mph 9.0 mph 91 % 0.00 in
06:05 77.5 °F 74.7 °F 29.79 in SE 6.0 mph 9.0 mph 91 % 0.00 in
06:10 77.5 °F 74.7 °F 29.79 in ESE 5.0 mph 9.0 mph 91 % 0.00 in
06:15 77.5 °F 74.7 °F 29.79 in SE 6.0 mph 9.0 mph 91 % 0.00 in
06:20 77.4 °F 74.5 °F 29.79 in SE 8.0 mph 10.0 mph 91 % 0.00 in
06:25 77.5 °F 74.7 °F 29.79 in SSE 4.0 mph 10.0 mph 91 % 0.00 in
06:30 77.4 °F 74.5 °F 29.79 in South 3.0 mph 11.0 mph 91 % 0.00 in
06:35 77.4 °F 74.5 °F 29.79 in East 5.0 mph 11.0 mph 91 % 0.00 in
06:40 77.4 °F 74.5 °F 29.80 in ESE 4.0 mph 8.0 mph 91 % 0.00 in
06:45 77.4 °F 74.5 °F 29.79 in ESE 3.0 mph 11.0 mph 91 % 0.00 in
06:50 77.4 °F 74.5 °F 29.80 in SE 4.0 mph 11.0 mph 91 % 0.00 in
06:55 77.4 °F 74.5 °F 29.80 in SE 6.0 mph 11.0 mph 91 % 0.00 in
07:00 77.4 °F 74.5 °F 29.80 in SSE 8.0 mph 11.0 mph 91 % 0.00 in
07:10 77.5 °F 74.3 °F 29.80 in SE 5.0 mph 12.0 mph 90 % 0.00 in
07:15 77.7 °F 74.5 °F 29.80 in SE 7.0 mph 12.0 mph 90 % 0.00 in
07:20 77.7 °F 74.5 °F 29.80 in SE 5.0 mph 12.0 mph 90 % 0.00 in
07:25 77.9 °F 74.7 °F 29.80 in East 2.0 mph 12.0 mph 90 % 0.00 in
07:30 78.1 °F 74.5 °F 29.80 in ESE 4.0 mph 9.0 mph 89 % 0.00 in
07:35 78.1 °F 74.5 °F 29.80 in ESE 5.0 mph 11.0 mph 89 % 0.00 in
07:40 78.3 °F 74.5 °F 29.80 in ESE 6.0 mph 11.0 mph 88 % 0.00 in
07:45 78.3 °F 74.5 °F 29.81 in SSE 9.0 mph 13.0 mph 88 % 0.00 in
07:50 78.4 °F 74.7 °F 29.81 in SE 6.0 mph 13.0 mph 88 % 0.00 in
07:55 78.6 °F 74.5 °F 29.81 in SSE 10.0 mph 13.0 mph 87 % 0.00 in
08:00 78.6 °F 74.5 °F 29.81 in ESE 6.0 mph 11.0 mph 87 % 0.00 in
08:05 79.0 °F 74.8 °F 29.81 in SW 6.0 mph 11.0 mph 87 % 0.00 in
08:10 79.0 °F 74.5 °F 29.81 in SSE 8.0 mph 11.0 mph 86 % 0.00 in
08:15 79.0 °F 74.5 °F 29.82 in SSE 4.0 mph 12.0 mph 86 % 0.00 in
08:20 79.0 °F 74.5 °F 29.82 in SSE 6.0 mph 12.0 mph 86 % 0.00 in
08:25 79.2 °F 74.3 °F 29.82 in SE 7.0 mph 12.0 mph 85 % 0.00 in
08:30 79.2 °F 74.3 °F 29.82 in SSE 9.0 mph 12.0 mph 85 % 0.00 in
08:35 79.2 °F 74.3 °F 29.82 in SE 6.0 mph 12.0 mph 85 % 0.00 in
08:40 79.2 °F 73.9 °F 29.83 in ESE 10.0 mph 12.0 mph 84 % 0.00 in
08:45 79.2 °F 73.9 °F 29.83 in ESE 6.0 mph 12.0 mph 84 % 0.00 in
08:51 79.2 °F 73.9 °F 29.83 in East 6.0 mph 11.0 mph 84 % 0.00 in
08:56 79.2 °F 73.9 °F 29.83 in East 3.0 mph 13.0 mph 84 % 0.00 in
09:01 79.2 °F 73.9 °F 29.83 in South 3.0 mph 13.0 mph 84 % 0.00 in
09:06 79.3 °F 74.1 °F 29.83 in ESE 6.0 mph 13.0 mph 84 % 0.00 in
09:11 79.3 °F 73.8 °F 29.83 in SSE 7.0 mph 10.0 mph 83 % 0.00 in
09:16 79.3 °F 73.8 °F 29.83 in SSE 4.0 mph 10.0 mph 83 % 0.00 in
09:21 79.3 °F 73.8 °F 29.84 in SE 3.0 mph 8.0 mph 83 % 0.00 in
09:26 79.5 °F 73.9 °F 29.84 in SSE 5.0 mph 8.0 mph 83 % 0.00 in
09:31 79.5 °F 73.6 °F 29.84 in ESE 3.0 mph 9.0 mph 82 % 0.00 in
09:36 79.9 °F 73.9 °F 29.84 in ESE 10.0 mph 10.0 mph 82 % 0.00 in
09:41 79.9 °F 73.9 °F 29.84 in SE 4.0 mph 13.0 mph 82 % 0.00 in
09:46 80.1 °F 73.8 °F 29.83 in ESE 4.0 mph 13.0 mph 81 % 0.00 in
09:51 80.1 °F 73.8 °F 29.84 in ESE 5.0 mph 13.0 mph 81 % 0.00 in
09:56 80.2 °F 73.9 °F 29.84 in SE 5.0 mph 11.0 mph 81 % 0.00 in
10:01 80.8 °F 73.9 °F 29.84 in South 9.0 mph 10.0 mph 80 % 0.00 in
10:06 80.8 °F 73.9 °F 29.84 in SE 5.0 mph 12.0 mph 80 % 0.00 in
10:11 81.0 °F 74.1 °F 29.84 in SSE 8.0 mph 12.0 mph 80 % 0.00 in
10:16 81.1 °F 73.9 °F 29.84 in SE 3.0 mph 13.0 mph 79 % 0.00 in
10:21 81.7 °F 74.5 °F 29.85 in SSE 3.0 mph 13.0 mph 79 % 0.00 in
10:26 81.9 °F 74.7 °F 29.84 in East 4.0 mph 13.0 mph 79 % 0.00 in
10:31 81.9 °F 73.9 °F 29.84 in SE 8.0 mph 10.0 mph 77 % 0.00 in
10:36 82.0 °F 74.1 °F 29.84 in ESE 4.0 mph 10.0 mph 77 % 0.00 in
10:37 82.0 °F 74.5 °F 29.84 in SW 6.0 mph 10.0 mph 78 % 0.00 in
10:42 82.2 °F 74.3 °F 29.84 in SE 5.0 mph 15.0 mph 77 % 0.00 in
10:47 82.9 °F 74.7 °F 29.84 in SSE 4.0 mph 15.0 mph 76 % 0.00 in
10:52 83.3 °F 74.5 °F 29.84 in SSE 7.0 mph 15.0 mph 75 % 0.00 in
10:57 83.5 °F 74.3 °F 29.84 in SE 8.0 mph 16.0 mph 74 % 0.00 in
11:02 84.0 °F 74.8 °F 29.83 in SE 6.0 mph 16.0 mph 74 % 0.00 in
11:07 84.4 °F 74.8 °F 29.83 in SE 7.0 mph 16.0 mph 73 % 0.00 in
11:12 84.4 °F 74.3 °F 29.83 in SSW 7.0 mph 13.0 mph 72 % 0.00 in
11:17 85.1 °F 75.0 °F 29.83 in SE 6.0 mph 14.0 mph 72 % 0.00 in
11:22 86.2 °F 74.8 °F 29.83 in SSE 5.0 mph 15.0 mph 69 % 0.00 in
11:27 86.5 °F 74.3 °F 29.83 in SSE 10.0 mph 15.0 mph 67 % 0.00 in
11:32 86.7 °F 74.5 °F 29.83 in SE 15.0 mph 15.0 mph 67 % 0.00 in
11:37 86.5 °F 74.3 °F 29.83 in SSE 8.0 mph 15.0 mph 67 % 0.00 in
11:42 86.5 °F 73.8 °F 29.83 in SSE 10.0 mph 15.0 mph 66 % 0.00 in
11:47 86.5 °F 74.3 °F 29.83 in SE 9.0 mph 15.0 mph 67 % 0.00 in
11:52 86.7 °F 73.9 °F 29.83 in SE 10.0 mph 15.0 mph 66 % 0.00 in
11:57 86.7 °F 73.9 °F 29.83 in SE 8.0 mph 16.0 mph 66 % 0.00 in
12:02 86.7 °F 74.5 °F 29.83 in East 6.0 mph 16.0 mph 67 % 0.00 in
12:07 87.4 °F 74.7 °F 29.83 in SSE 5.0 mph 17.0 mph 66 % 0.00 in
12:12 87.6 °F 74.3 °F 29.83 in SE 7.0 mph 17.0 mph 65 % 0.00 in
12:17 88.2 °F 74.8 °F 29.83 in ESE 7.0 mph 17.0 mph 65 % 0.00 in
12:22 88.2 °F 74.8 °F 29.83 in SSW 10.0 mph 14.0 mph 65 % 0.00 in
12:27 88.5 °F 74.8 °F 29.83 in SSE 6.0 mph 16.0 mph 64 % 0.00 in
12:32 88.7 °F 75.0 °F 29.83 in South 7.0 mph 16.0 mph 64 % 0.00 in
12:37 89.1 °F 74.8 °F 29.83 in South 9.0 mph 16.0 mph 63 % 0.00 in
12:42 88.9 °F 74.7 °F 29.83 in SE 6.0 mph 18.0 mph 63 % 0.00 in
12:47 88.5 °F 74.8 °F 29.83 in South 11.0 mph 18.0 mph 64 % 0.00 in
12:52 88.5 °F 74.3 °F 29.83 in South 10.0 mph 18.0 mph 63 % 0.00 in
12:57 88.7 °F 74.5 °F 29.83 in SSW 14.0 mph 17.0 mph 63 % 0.00 in
13:02 88.9 °F 75.2 °F 29.83 in SSE 10.0 mph 17.0 mph 64 % 0.00 in
13:07 88.9 °F 74.7 °F 29.82 in South 8.0 mph 17.0 mph 63 % 0.00 in
13:12 88.7 °F 74.5 °F 29.82 in SSW 5.0 mph 16.0 mph 63 % 0.00 in
13:17 89.2 °F 75.0 °F 29.82 in SE 6.0 mph 16.0 mph 63 % 0.00 in
13:22 89.8 °F 74.1 °F 29.82 in SE 11.0 mph 16.0 mph 60 % 0.00 in
13:27 90.0 °F 74.1 °F 29.82 in SE 9.0 mph 16.0 mph 60 % 0.00 in
13:32 89.6 °F 74.3 °F 29.81 in SW 8.0 mph 17.0 mph 61 % 0.00 in
13:37 90.1 °F 72.9 °F 29.81 in South 11.0 mph 17.0 mph 57 % 0.00 in
13:42 90.3 °F 73.6 °F 29.81 in SE 8.0 mph 17.0 mph 58 % 0.00 in
13:47 90.1 °F 73.9 °F 29.81 in ESE 5.0 mph 16.0 mph 59 % 0.00 in
13:52 90.7 °F 72.9 °F 29.81 in SE 9.0 mph 19.0 mph 56 % 0.00 in
13:57 90.3 °F 73.0 °F 29.81 in SE 7.0 mph 19.0 mph 57 % 0.00 in
14:02 90.7 °F 73.9 °F 29.81 in SE 12.0 mph 19.0 mph 58 % 0.00 in
14:07 90.7 °F 73.4 °F 29.81 in ESE 15.0 mph 19.0 mph 57 % 0.00 in
14:12 90.5 °F 73.8 °F 29.80 in South 15.0 mph 22.0 mph 58 % 0.00 in
14:17 91.2 °F 73.8 °F 29.80 in SE 8.0 mph 22.0 mph 57 % 0.00 in
14:22 90.3 °F 73.0 °F 29.80 in East 15.0 mph 22.0 mph 57 % 0.00 in
14:27 90.1 °F 73.4 °F 29.80 in ESE 12.0 mph 18.0 mph 58 % 0.00 in
14:32 90.1 °F 72.3 °F 29.80 in SSE 7.0 mph 18.0 mph 56 % 0.00 in
14:37 90.5 °F 73.2 °F 29.80 in East 7.0 mph 18.0 mph 57 % 0.00 in
14:42 90.7 °F 73.4 °F 29.80 in SSE 4.0 mph 20.0 mph 57 % 0.00 in
14:47 90.3 °F 72.5 °F 29.80 in SE 10.0 mph 20.0 mph 56 % 0.00 in
14:52 90.1 °F 73.4 °F 29.80 in ESE 15.0 mph 20.0 mph 58 % 0.00 in
14:57 89.6 °F 72.3 °F 29.80 in ESE 11.0 mph 18.0 mph 57 % 0.00 in
15:02 89.6 °F 71.2 °F 29.80 in South 6.0 mph 16.0 mph 55 % 0.00 in
15:07 90.1 °F 71.8 °F 29.80 in SE 9.0 mph 19.0 mph 55 % 0.00 in
15:12 90.7 °F 72.3 °F 29.80 in ESE 10.0 mph 20.0 mph 55 % 0.00 in
15:17 91.2 °F 72.3 °F 29.80 in SSE 9.0 mph 20.0 mph 54 % 0.00 in
15:22 90.3 °F 72.0 °F 29.80 in SE 7.0 mph 20.0 mph 55 % 0.00 in
15:27 89.4 °F 72.1 °F 29.80 in SE 10.0 mph 19.0 mph 57 % 0.00 in
15:32 88.9 °F 71.6 °F 29.79 in SSE 9.0 mph 19.0 mph 57 % 0.00 in
15:37 88.7 °F 72.0 °F 29.80 in South 7.0 mph 19.0 mph 58 % 0.00 in
15:42 88.9 °F 72.7 °F 29.80 in SE 15.0 mph 18.0 mph 59 % 0.00 in
15:47 88.9 °F 72.1 °F 29.79 in SSW 6.0 mph 19.0 mph 58 % 0.00 in
15:52 89.1 °F 72.3 °F 29.79 in SE 15.0 mph 19.0 mph 58 % 0.00 in
15:57 89.2 °F 72.5 °F 29.79 in SE 8.0 mph 19.0 mph 58 % 0.00 in
16:02 89.2 °F 71.4 °F 29.79 in South 16.0 mph 17.0 mph 56 % 0.00 in
16:07 89.2 °F 70.9 °F 29.79 in SSE 11.0 mph 19.0 mph 55 % 0.00 in
16:08 89.2 °F 70.9 °F 29.79 in SE 12.0 mph 19.0 mph 55 % 0.00 in
16:13 89.2 °F 72.0 °F 29.79 in ESE 14.0 mph 19.0 mph 57 % 0.00 in
16:18 89.2 °F 72.0 °F 29.79 in SE 12.0 mph 19.0 mph 57 % 0.00 in
16:23 89.2 °F 72.0 °F 29.78 in SE 11.0 mph 18.0 mph 57 % 0.00 in
16:28 89.1 °F 71.8 °F 29.78 in ESE 11.0 mph 18.0 mph 57 % 0.00 in
16:33 88.5 °F 71.8 °F 29.78 in SE 9.0 mph 19.0 mph 58 % 0.00 in
16:38 88.2 °F 71.1 °F 29.78 in South 8.0 mph 20.0 mph 57 % 0.00 in
16:43 88.7 °F 71.4 °F 29.78 in SE 12.0 mph 20.0 mph 57 % 0.00 in
16:48 88.7 °F 71.4 °F 29.78 in SE 9.0 mph 20.0 mph 57 % 0.00 in
16:53 89.2 °F 71.4 °F 29.78 in SSE 13.0 mph 19.0 mph 56 % 0.00 in
16:58 88.9 °F 72.1 °F 29.78 in ESE 7.0 mph 18.0 mph 58 % 0.00 in
17:03 88.9 °F 71.6 °F 29.78 in East 10.0 mph 17.0 mph 57 % 0.00 in
17:08 88.3 °F 72.1 °F 29.78 in SE 11.0 mph 19.0 mph 59 % 0.00 in
17:13 87.3 °F 70.7 °F 29.78 in SSE 7.0 mph 19.0 mph 58 % 0.00 in
17:18 86.7 °F 71.2 °F 29.78 in SE 5.0 mph 19.0 mph 60 % 0.00 in
17:23 87.1 °F 72.0 °F 29.78 in SE 6.0 mph 19.0 mph 61 % 0.00 in
17:28 87.3 °F 71.6 °F 29.78 in SSW 7.0 mph 18.0 mph 60 % 0.00 in
17:33 87.4 °F 71.8 °F 29.78 in SSE 16.0 mph 19.0 mph 60 % 0.00 in
17:38 87.1 °F 72.0 °F 29.78 in ESE 11.0 mph 19.0 mph 61 % 0.00 in
17:43 86.7 °F 71.6 °F 29.78 in ESE 16.0 mph 19.0 mph 61 % 0.00 in
17:48 86.9 °F 71.8 °F 29.77 in East 16.0 mph 17.0 mph 61 % 0.00 in
17:53 86.5 °F 71.4 °F 29.77 in ESE 10.0 mph 18.0 mph 61 % 0.00 in
17:58 86.5 °F 71.4 °F 29.78 in ESE 11.0 mph 18.0 mph 61 % 0.00 in
18:03 86.5 °F 70.5 °F 29.78 in East 16.0 mph 18.0 mph 59 % 0.00 in
18:08 86.5 °F 71.4 °F 29.78 in SE 12.0 mph 19.0 mph 61 % 0.00 in
18:13 86.4 °F 70.9 °F 29.77 in ESE 11.0 mph 19.0 mph 60 % 0.00 in
18:18 86.2 °F 70.7 °F 29.77 in SSE 8.0 mph 19.0 mph 60 % 0.00 in
18:23 86.2 °F 70.7 °F 29.77 in SE 12.0 mph 16.0 mph 60 % 0.00 in
18:28 86.2 °F 71.1 °F 29.77 in South 3.0 mph 16.0 mph 61 % 0.00 in
18:33 85.8 °F 70.9 °F 29.77 in SE 8.0 mph 16.0 mph 61 % 0.00 in
18:38 85.8 °F 70.9 °F 29.77 in SE 11.0 mph 16.0 mph 61 % 0.00 in
18:43 85.8 °F 70.3 °F 29.77 in SSW 9.0 mph 18.0 mph 60 % 0.00 in
18:48 85.8 °F 70.9 °F 29.77 in SE 13.0 mph 18.0 mph 61 % 0.00 in
18:53 85.6 °F 71.6 °F 29.77 in SE 6.0 mph 18.0 mph 63 % 0.00 in
18:58 85.5 °F 70.9 °F 29.76 in SSE 9.0 mph 18.0 mph 62 % 0.00 in
19:03 85.1 °F 70.5 °F 29.76 in SE 8.0 mph 18.0 mph 62 % 0.00 in
19:08 84.7 °F 70.3 °F 29.76 in SE 9.0 mph 18.0 mph 62 % 0.00 in
19:13 84.7 °F 70.7 °F 29.76 in ESE 9.0 mph 18.0 mph 63 % 0.00 in
19:18 84.4 °F 70.0 °F 29.75 in SE 11.0 mph 18.0 mph 62 % 0.00 in
19:23 84.0 °F 69.6 °F 29.76 in East 19.0 mph 19.0 mph 62 % 0.00 in
19:28 83.7 °F 69.8 °F 29.76 in ESE 14.0 mph 19.0 mph 63 % 0.00 in
19:33 83.5 °F 70.5 °F 29.76 in South 7.0 mph 20.0 mph 65 % 0.00 in
19:38 83.3 °F 69.8 °F 29.76 in SE 11.0 mph 20.0 mph 64 % 0.00 in
19:43 83.1 °F 70.2 °F 29.75 in SSW 7.0 mph 21.0 mph 65 % 0.00 in
19:48 82.9 °F 70.0 °F 29.75 in SE 6.0 mph 21.0 mph 65 % 0.00 in
19:53 82.8 °F 70.7 °F 29.76 in ESE 10.0 mph 21.0 mph 67 % 0.00 in
19:58 82.6 °F 70.9 °F 29.76 in East 11.0 mph 15.0 mph 68 % 0.00 in
20:03 82.4 °F 71.2 °F 29.76 in SSE 7.0 mph 18.0 mph 69 % 0.00 in
20:08 82.0 °F 71.2 °F 29.76 in SSE 13.0 mph 18.0 mph 70 % 0.00 in
20:13 81.9 °F 71.6 °F 29.76 in SE 8.0 mph 19.0 mph 71 % 0.00 in
20:18 81.7 °F 71.8 °F 29.75 in SE 6.0 mph 19.0 mph 72 % 0.00 in
20:23 81.7 °F 71.8 °F 29.76 in SSE 6.0 mph 19.0 mph 72 % 0.00 in
20:28 81.5 °F 72.0 °F 29.76 in ESE 11.0 mph 19.0 mph 73 % 0.00 in
20:33 81.3 °F 72.3 °F 29.77 in SSE 5.0 mph 19.0 mph 74 % 0.00 in
20:35 81.3 °F 72.3 °F 29.77 in SE 7.0 mph 17.0 mph 74 % 0.00 in
20:40 81.1 °F 72.1 °F 29.78 in SSE 4.0 mph 17.0 mph 74 % 0.00 in
20:45 81.1 °F 72.5 °F 29.78 in SE 2.0 mph 17.0 mph 75 % 0.00 in
20:50 81.1 °F 72.5 °F 29.78 in SE 7.0 mph 14.0 mph 75 % 0.00 in
20:55 81.1 °F 72.9 °F 29.79 in ENE 5.0 mph 14.0 mph 76 % 0.00 in
21:00 81.0 °F 72.7 °F 29.79 in SE 6.0 mph 10.0 mph 76 % 0.00 in
21:05 80.8 °F 72.5 °F 29.78 in SSE 7.0 mph 11.0 mph 76 % 0.00 in
21:10 80.8 °F 72.9 °F 29.78 in ESE 6.0 mph 11.0 mph 77 % 0.00 in
21:15 80.6 °F 73.0 °F 29.79 in ESE 6.0 mph 11.0 mph 78 % 0.00 in
21:20 80.4 °F 72.9 °F 29.79 in ESE 4.0 mph 10.0 mph 78 % 0.00 in
21:25 80.4 °F 72.9 °F 29.79 in SSE 10.0 mph 15.0 mph 78 % 0.00 in
21:30 80.2 °F 72.7 °F 29.79 in SE 6.0 mph 15.0 mph 78 % 0.00 in
21:35 80.2 °F 72.7 °F 29.79 in SE 4.0 mph 15.0 mph 78 % 0.00 in
21:40 80.2 °F 73.0 °F 29.79 in SE 7.0 mph 12.0 mph 79 % 0.00 in
21:45 80.2 °F 73.0 °F 29.79 in SSW 5.0 mph 14.0 mph 79 % 0.00 in
21:50 80.2 °F 73.0 °F 29.79 in SSE 5.0 mph 14.0 mph 79 % 0.00 in
21:56 80.1 °F 73.4 °F 29.79 in SE 4.0 mph 14.0 mph 80 % 0.00 in
22:01 80.1 °F 73.4 °F 29.78 in South 9.0 mph 12.0 mph 80 % 0.00 in
22:06 80.1 °F 73.4 °F 29.78 in South 6.0 mph 12.0 mph 80 % 0.00 in
22:11 80.1 °F 73.4 °F 29.79 in SE 9.0 mph 11.0 mph 80 % 0.00 in
22:16 80.1 °F 73.8 °F 29.79 in ESE 6.0 mph 12.0 mph 81 % 0.00 in
22:21 80.1 °F 73.8 °F 29.79 in ESE 9.0 mph 12.0 mph 81 % 0.00 in
22:26 80.1 °F 73.8 °F 29.79 in SE 3.0 mph 12.0 mph 81 % 0.00 in
22:31 80.1 °F 73.8 °F 29.79 in SE 8.0 mph 18.0 mph 81 % 0.00 in
22:36 79.9 °F 73.6 °F 29.79 in SE 10.0 mph 18.0 mph 81 % 0.00 in
22:41 79.9 °F 73.9 °F 29.79 in SE 5.0 mph 18.0 mph 82 % 0.00 in
22:46 79.7 °F 73.8 °F 29.80 in SE 12.0 mph 14.0 mph 82 % 0.00 in
22:51 79.7 °F 73.8 °F 29.80 in SSE 4.0 mph 15.0 mph 82 % 0.00 in
22:56 79.7 °F 73.8 °F 29.80 in SE 10.0 mph 15.0 mph 82 % 0.00 in
23:01 79.5 °F 73.6 °F 29.80 in SE 4.0 mph 15.0 mph 82 % 0.00 in
23:06 79.5 °F 73.9 °F 29.80 in SE 10.0 mph 14.0 mph 83 % 0.00 in
23:11 79.5 °F 73.9 °F 29.80 in SSE 9.0 mph 13.0 mph 83 % 0.00 in
23:16 79.5 °F 73.9 °F 29.80 in ESE 8.0 mph 13.0 mph 83 % 0.00 in
23:21 79.5 °F 73.9 °F 29.80 in SE 6.0 mph 15.0 mph 83 % 0.00 in
23:26 79.5 °F 73.9 °F 29.80 in SE 6.0 mph 15.0 mph 83 % 0.00 in
23:31 79.5 °F 73.9 °F 29.81 in SE 6.0 mph 15.0 mph 83 % 0.00 in
23:36 79.5 °F 73.6 °F 29.81 in SSE 7.0 mph 15.0 mph 82 % 0.00 in
23:41 79.5 °F 73.6 °F 29.81 in SE 5.0 mph 15.0 mph 82 % 0.00 in
23:43 79.5 °F 73.6 °F 29.82 in SE 5.0 mph 15.0 mph 82 % 0.00 in
23:48 79.5 °F 73.6 °F 29.82 in SE 7.0 mph 15.0 mph 82 % 0.00 in
23:53 79.5 °F 73.9 °F 29.82 in SE 5.0 mph 15.0 mph 83 % 0.00 in
23:58 79.5 °F 73.9 °F 29.82 in SSE 5.0 mph 12.0 mph 83 % 0.00 in
Spring, Texas: Villages of Bridgestone
Compliments of Weather Underground - 2.75 mb

Script developed by  Jim McMurry - jmcmurry@mwt.net Adapted for the template by  Wim van der Kuil - Leuven-Template.eu

You find our weather info also at:

UK Metoffice

WeatherCloud

Weather Underground

Mid-South Weather Network

AWEKAS

Citizen Weather Observer Program (CWOP)

HAMweather, WeatherForYou, PWS Weather

Equipment we use:

Weather-station
Davis Vantage Vue

Weather-program
Meteohub

Weather-server
Debian 7.9 x86 (Guest)

Provider
DreamHost

Davis Vantage Vue

Meteohub

Debian 7.9 x86 (Guest)

DreamHost